LEMUR-2-ZUPANSKI (43695 NORAD) Tracking and Keplerian Element Data

This shows tracking and keplerian element data for the satellite.

Feedback or suggestion? Click here.




ElementValue
Catalog43695
NameLEMUR-2-ZUPANSKI
Epoch Orbit448
Epoch Day344.68889973
Epoch Year2018
RAAN83.5148
Inclination85.034
Eccentricity0.0018156
Argument of Perigee174.9561
Mean Anonmoly185.1866
Mean Motion15.19685964
Decay Rate2.572E-05
L11 43695U 18088F 18344.68889973 .00002572 00000-0 11826-3 0 9997
L22 43695 85.0340 83.5148 0018156 174.9561 185.1866 15.19685964 4487

Live tracking and technical data element details for LEMUR-2-ZUPANSKI (NORAD 43695). LEMUR-2-ZUPANSKI can be tracked NOW for your location showing map with azimuth and elevation plus other details from your city location.

Track the satellite on the map from your city or location and see movement details for azimuth, elevation, latitude, longitude, range, height, and movement on the map or in text.







IsCatalogInMostPopularTable: catalog: 43695, numindb: 130
Update: records affected: 1



GetName: 43695 LEMUR-2-ZUPANSKI

Hit Count: updated at: Mon, 22 Jul 2019 15:53:47 GMT